Seattle, WA
on Friday, December 14, 2012

Friday
Previous Day Next Day
Daily Summary
 ActualAverageRecord
Temperature
Mean Temperature °F 40°F  
Max Temperature 43°F 45°F 59°F (2002)
Min Temperature 34°F 35°F 22°F (2008)
Degree Days
Heating Degree Days 26 25  
Month to date heating degree days 293 335  
Since 1 July heating degree days 1320 1518  
Cooling Degree Days 0 0  
Month to date cooling degree days 0 0  
Year to date cooling degree days 177 189  
Moisture
Dew Point 35°F   
Average Humidity 81    
Maximum Humidity 92    
Minimum Humidity 70    
Precipitation
Precipitation 0.31 in 0.17 in 1.67 in (1979)
Month to date precipitation 3.08 2.54  
Year to date precipitation 44.49 34.68  
Snow
Snow 0.00 in in 0.70 in (2008)
Month to date snowfall 0.0  
Since 1 July snowfall 0.0  
Snow Depth 0.00 in   
Wind
Wind Speed 4 mph   
Max Wind Speed 12 mph   
Max Gust Speed 14 mph   
Visibility 7 miles   
Events Fog , Rain   

Key: T is trace of precipitation, MM is missing value
Source: NWS Daily Summary
Time(PST)TemperatureDew PointHumidity Pressure Visibility Wind DirectionWind SpeedGust SpeedPrecipitationEvents Conditions
12:53 AM 39.0°F 37.0°F 93% 29.82 in 10.0 miles SSE 6.9 mph - 0.04 in Rain Light Rain
1:53 AM 39.0°F 37.0°F 93% 29.81 in 10.0 miles SSE 6.9 mph - 0.03 in Rain Light Rain
2:17 AM 39.2°F 37.4°F 93% 29.79 in 9.0 miles South 6.9 mph - 0.02 in Rain Light Rain
2:53 AM 39.0°F 37.0°F 93% 29.81 in 10.0 miles SSE 4.6 mph - 0.05 in Rain Light Rain
3:53 AM 39.0°F 36.0°F 89% 29.81 in 7.0 miles South 4.6 mph - 0.06 in Rain Rain
4:18 AM 39.2°F 35.6°F 87% 29.78 in 7.0 miles SSW 5.8 mph - 0.06 in Rain Rain
4:40 AM 39.2°F 35.6°F 87% 29.79 in 7.0 miles Calm Calm - 0.09 in Rain Light Rain
4:53 AM 39.0°F 35.1°F 86% 29.81 in 8.0 miles South 4.6 mph - 0.09 in Rain Light Rain
5:30 AM 37.4°F 35.6°F 93% 29.79 in 7.0 miles SSE 3.5 mph - 0.02 in Rain Light Rain
5:53 AM 39.0°F 36.0°F 89% 29.83 in 6.0 miles Calm Calm - 0.02 in Rain Light Rain
6:53 AM 39.0°F 36.0°F 89% 29.84 in 6.0 miles Calm Calm - 0.02 in Rain Light Rain
7:38 AM 37.4°F 35.6°F 93% 29.81 in 10.0 miles South 3.5 mph - 0.00 in   Overcast
7:53 AM 39.0°F 36.0°F 89% 29.85 in 10.0 miles Calm Calm - 0.00 in Rain Light Rain
8:53 AM 39.9°F 36.0°F 86% 29.87 in 10.0 miles Calm Calm - 0.01 in Rain Light Rain
9:53 AM 39.9°F 37.9°F 93% 29.89 in 10.0 miles Calm Calm - 0.00 in   Overcast
10:39 AM 41.0°F 37.4°F 87% 29.87 in 10.0 miles ENE 5.8 mph - 0.00 in   Mostly Cloudy
10:53 AM 41.0°F 37.0°F 86% 29.90 in 10.0 miles ENE 3.5 mph - 0.00 in   Mostly Cloudy
11:09 AM 42.8°F 37.4°F 81% 29.87 in 10.0 miles Variable 3.5 mph - N/A   Mostly Cloudy
11:41 AM 42.8°F 35.6°F 76% 29.88 in 10.0 miles North 5.8 mph - N/A   Overcast
11:53 AM 41.0°F 36.0°F 82% 29.90 in 10.0 miles NE 5.8 mph - N/A   Overcast
12:53 PM 41.0°F 35.1°F 79% 29.92 in 10.0 miles NNE 3.5 mph - N/A   Mostly Cloudy
1:53 PM 42.1°F 34.0°F 73% 29.93 in 10.0 miles NE 8.1 mph - N/A   Overcast
2:53 PM 42.1°F 34.0°F 73% 29.94 in 10.0 miles NE 4.6 mph - N/A   Mostly Cloudy
3:53 PM 42.1°F 33.1°F 70% 29.96 in 10.0 miles East 4.6 mph - N/A   Mostly Cloudy
4:53 PM 41.0°F 33.1°F 73% 29.97 in 10.0 miles Calm Calm - N/A   Mostly Cloudy
5:53 PM 39.9°F 35.1°F 83% 29.97 in 10.0 miles Calm Calm - N/A   Mostly Cloudy
6:53 PM 37.9°F 34.0°F 86% 29.96 in 10.0 miles South 3.5 mph - N/A   Mostly Cloudy
7:53 PM 37.0°F 34.0°F 89% 29.96 in 10.0 miles SE 4.6 mph - N/A   Scattered Clouds
8:07 PM 37.4°F 33.8°F 87% 29.94 in 0.5 miles SE 6.9 mph - N/A Fog Fog
8:11 PM 37.4°F 35.6°F 93% 29.94 in 0.5 miles SE 8.1 mph - N/A Fog Fog
8:43 PM 35.6°F 33.8°F 93% 29.94 in 1.0 miles SE 5.8 mph - N/A   Scattered Clouds
8:46 PM 35.6°F 33.8°F 93% 29.94 in 2.0 miles ESE 8.1 mph - N/A   Scattered Clouds
8:53 PM 36.0°F 34.0°F 93% 29.96 in 7.0 miles ESE 8.1 mph - N/A   Scattered Clouds
9:12 PM 35.6°F 33.8°F 93% 29.94 in 0.5 miles ESE 8.1 mph - N/A Fog Fog
9:20 PM 35.6°F 33.8°F 93% 29.94 in 0.5 miles SE 8.1 mph - N/A Fog Fog
9:53 PM 35.1°F 33.1°F 92% 29.97 in 0.5 miles SSE 4.6 mph - N/A Fog Fog
10:31 PM 35.6°F 33.8°F 93% 29.94 in 0.5 miles ESE 6.9 mph - N/A Fog Scattered Clouds
10:53 PM 35.1°F 33.1°F 92% 29.96 in 0.5 miles SE 6.9 mph - N/A Fog Mostly Cloudy
11:01 PM 35.6°F 33.8°F 93% 29.93 in 4.0 miles SE 6.9 mph - N/A Fog Mostly Cloudy
11:53 PM 34.0°F 30.9°F 89% 29.95 in 10.0 miles SE 9.2 mph - N/A   Scattered Clouds
Moon Phase
Dec. 14 Dec. 20 Dec. 28 Jan. 04 Jan. 11
Sunrise:07:49 AM (PST) Moon Rise:08:55 AM (PST)12/14
Sunset:04:18 PM (PST) Moon Set:06:22 PM (PST)12/14

Copyright © 2014 The Weather Underground, Inc.